Zurück zum Katalog

STARLINK-5532

AktivKommunikationVLEO
NORAD 55760·PAYLOAD·🇺🇸 United States

Gestartet Mar 3, 2023 von Vandenberg Space Force Base

Loading…

Nächste Überflüge (nächste 24 Stunden)

TLE

AktuellSource: CelesTrak SupGP

Epoche: Sep 14, 2026, 21:37 UTC

1 55760C 23028V   26257.90118056 -.00011184  00000+0 -93740-3 0  2579
2 55760  70.0000 127.1771 0002766 272.5136 225.2278 14.98332894    15

Verfolge STARLINK-5532 in Echtzeit mit AllMySat

Download on the App Store